Hourly Data Report for October 03, 2015

All times are specified in Local Standard Time (LST). Add 1 hour to adjust for Daylight Saving Time where and when it is observed.

KUGAARUK CLIMATE
NUNAVUT

68°32'15.060" N
89°47'47.020" W
15.80 m
2303094
71407
NBB

Download Data

Hourly Data (October 2015)
Hourly Data Report for October 3, 2015
Temp Definition
°C
Dew Point Temp Definition
°C
Rel Hum Definition
%
Wind Dir Definition
10's deg

Wind Spd Definition
km/h
Visibility Definition
km
Stn Press Definition
kPa
Hmdx Definition


Wind Chill Definition


Weather Definition


TIME
00:00 -1.2 -2.4 91 22 10   102.61   -5 LegendNANA
01:00 -0.7 -2.0 91 26 11   102.57   -4 LegendNANA
02:00 -0.8 -2.2 90 25 10   102.58   -4 LegendNANA
03:00 -1.4 -3.1 88 36 1   102.56   -2 LegendNANA
04:00 -1.7 -2.9 91 32 1   102.54   -2 LegendNANA
05:00 -1.7 -3.2 89 0 1   102.52   -2 LegendNANA
06:00 -1.9 -3.5 89 31 8   102.51   -5 LegendNANA
07:00 -2.4 -4.3 87 32 8   102.49   -6 LegendNANA
08:00 -0.7 -3.3 82 30 5   102.48   -2 LegendNANA
09:00 -0.3 -4.9 71 32 8   102.47   -3 LegendNANA
10:00 -0.4 -6.3 64 29 12   102.45   -4 LegendNANA
11:00 -0.4 -6.0 66 34 10   102.44   -4 LegendNANA
12:00 -0.7 -5.3 71 32 15   102.47   -5 LegendNANA
13:00 -1.1 -4.0 80 33 15   102.50   -6 LegendNANA
14:00 -0.9 -6.0 68 28 13   102.49   -5 LegendNANA
15:00 -0.9 -5.1 73 25 8   102.52   -4 LegendNANA
16:00 -1.1 -3.9 82 25 8   102.51   -4 LegendNANA
17:00 -0.9 -5.8 69 28 15   102.52   -6 LegendNANA
18:00 -0.9 -6.3 67 29 19   102.54   -6 LegendNANA
19:00 -1.3 -7.0 65 28 18   102.54   -7 LegendNANA
20:00 -1.1 -6.2 68 27 11   102.51   -5 LegendNANA
21:00 -1.1 -5.9 70 23 18   102.48   -6 LegendNANA
22:00 -0.8 -5.8 69 24 22   102.45   -7 LegendNANA
23:00 -1.1 -5.8 71 25 27   102.43   -8 LegendNANA

Notes on Data Quality.

Legend

  • E = Estimated
  • M = Missing
  • NA = Not Available
  • ‡ = Partner data that is not subject to review by the National Climate Archives
Date modified: